Southwestern Grand Banks: Past 24 Hour Conditions

 

St. John's Int'l Airport

07:30 PM NDT 23 September 2014
This table is a summary of hourly weather conditions for the past 24 hours.
Date / Time
(NDT)
Wind(knots) Conditions Visibility(km) Pressure(kPa) Air tempC) Relative humidity(%) Dew pointC) Humidex
23 September 2014
19:30 WSW 18 Mostly Cloudy 24 101.5 12 75 8 *
18:30 W 17 gust 24 Mainly Sunny 24 101.4 13 71 8 *
17:30 W 23 gust 32 Mainly Sunny 24 101.3 14 68 8 *
16:30 WSW 22 gust 29 Mainly Sunny 24 101.2 15 67 9 *
15:30 WSW 21 gust 30 Mainly Sunny 24 101.2 16 65 10 *
14:30 WSW 25 gust 31 Mainly Sunny 23 101.1 17 65 10 *
13:30 WSW 26 gust 35 Mainly Sunny 24 101.1 17 68 11 *
12:30 WSW 20 gust 30 Mainly Sunny 24 101.0 18 71 13 *
11:30 WSW 23 gust 30 Mainly Sunny 24 101.0 18 75 14 *
10:30 WSW 19 gust 30 Mainly Sunny 24 101.0 18 79 14 *
9:30 SW 21 gust 28 Partly Cloudy 24 100.9 18 82 15 *
8:30 SW 16 gust 21 Partly Cloudy 24 100.9 18 90 17 *
7:30 SW 17 gust 24 Light Rainshower 24 100.9 19 95 18 *
6:30 SW 19 gust 27 Light Rainshower 16 100.8 19 94 18 *
5:30 SW 17 gust 27 Mostly Cloudy 24 100.9 19 92 18 *
4:30 SW 16 gust 28 Light Rainshower 24 100.9 19 92 18 *
3:30 SW 23 gust 31 Light Rainshower 24 100.9 19 92 18 *
2:30 SW 23 Cloudy 24 101.0 19 91 17 *
1:30 SW 19 gust 29 Mostly Cloudy 24 101.0 18 93 16 *
0:30 SW 18 gust 28 Partly Cloudy 24 100.9 18 93 17 *
22 September 2014
23:30 SW 21 gust 29 Mostly Cloudy 24 100.9 19 92 17 *
22:30 SW 21 gust 35 Light Rain 24 100.9 19 93 18 *
21:30 SW 26 gust 40 Light Rain 19 100.8 20 93 19 27
20:30 SSW 29 gust 48 Light Rain 10 100.7 20 95 19 27
19:30 SSW 27 gust 38 Light Rain 10 100.8 20 97 19 *
 
Map of Atlantic - Newfoundland marine weather areas Southwestern Grand Banks - 44138 Banquereau - 44139 Tail of the Bank - 44140 Nickerson Bank - 44251 Northeast Burgeo Bank - 44255 Blanc-Sablon Airport Cap Whittle Chevery Natashquan Airport Heath Point Miscou Island Grand Étang Ingonish Beach North Mountain St.Paul Island J.A. Douglas McCurdy Sydney Airport Charlottetown Airport East Point North Cape Argentia Bonavista Burgeo Cape Race Corner Brook Daniel's Harbour Englee Ferolle Point La Scie Port aux Basques Rocky Harbour Sagona Island St. Anthony Airport St. John's Int'l Airport St. Lawrence Stephenville Airport Twillingate Winterland Wreckhouse Cartwright Airport Mary's Harbour Grates Cove Pool's Island Marticot Island Long Pond Îles de la Madeleine Airport
Legend: buoyBuoy land stationLand Station